Погода в Урицком

Россия / Республика Саха (Якутия)     60°33′32″N   122°23′23″E
темп.,
°C
ветер,
м/с
пор.,
м/с
влажн.,
%
обл.,
%
осадки,
мм/ч
давл.,
гПа
погр.,
м
27 февраля, сб
сб2700:00−26вюв129667 0.0 102519
03:00−26вюв119683 0.0 102319
06:00−26всв0196100 0.0 102219
09:00−25ссв0195100 0.0 102238
12:00−21сз1291100 0.3 1021286
15:00−21зсз2492100 0.8 1019540
18:00−22зсз4896100 0.4 1021643
21:00−24зсз5995100 0.9 1021757
28 февраля, вс
вс2800:00−25зсз51294100 0.3 1023922
03:00−25зсз51193100 0.6 1024934
06:00−25зсз51192100 0.2 1026901
09:00−26з51191100 0.3 1028716
12:00−26з51084100 0.1 1030853
15:00−25з5981100 0.1 10301170
18:00−25з4887100 0.1 10321038
21:00−27з31193100 0.1 1033435
1 марта, пн
пн100:00−30зюз2597100 0.0 1033125
03:00−31зюз2298100 0.0 103352
06:00−32зюз2298100 0.0 103460
09:00−31зюз259798 0.0 1034171
12:00−26з268398 0.0 1032535
15:00−24з357699 0.0 1030939
18:00−28з1293100 0.0 103019
21:00−31ююз129584 0.0 103019
2 марта, вт
вт200:00−32ююз129564 0.0 103019
03:00−32ю119777 0.0 102919
06:00−34ююв119766 0.0 102819
09:00−32юв119557 0.0 102733
12:00−25в127748 0.0 1025393
15:00−22в226966 0.0 1023959
18:00−26св2392100 0.0 102340
21:00−30в129976 0.0 102419
3 марта, ср
ср300:00−33всв1110019 0.0 102419
03:00−34всв1210039 0.0 102419
06:00−35всв1110081 0.0 102419
09:00−34св119887 0.0 102548
12:00−27ссв128197 0.0 1023329
15:00−24ссв237398 0.0 1022731
18:00−27с2292100 0.0 102330
21:00−32сз1297100 0.0 102519